Location: ????????
(37.6846°N, 24.0673°E)
Time: 14:26:03
(UTC+00:00)

Cosmos 1140 Rocket - Pass Details

Date: 14 July 2020
Orbit: 744 x 768 km, 74.1° (Epoch: 04 August)

Event Time Altitude Azimuth Distance (km) Brightness Sun altitude
Exits shadow 00:52:11 33° 271° (W) 1,259 4.3 -21.9°
Maximum altitude 00:53:08 36° 294° (WNW) 1,199 4.4 -21.8°
Drops below altitude 10° 00:57:56 10° 1° (N) 2,306 6.7 -21.2°
Sets 01:00:30 0° 10° (N) 3,239 7.8 -20.9°
